Location: Pasadena, ca
(34.1243°N, 118.1037°W)
Time: 12:36:40
(UTC-08:00)

Envisat - Pass Details

Date: 07 October 2017
Orbit: 764 x 766 km, 98.2° (Epoch: 16 December)

Event Time Altitude Azimuth Distance (km) Brightness Sun altitude
Exits shadow 21:38:54 20° 307° (NW) 1,738 5.3 -39.6°
Drops below altitude 10° 21:40:48 10° 323° (NW) 2,307 6.0 -40.0°
Sets 21:43:24 0° 335° (NNW) 3,238 6.8 -40.5°
